{"data":{"norad_id":68148,"intl_designator":"2026-049G","name":"STARLINK-36981","alt_names":[],"object_type":"PAYLOAD","status":"ACTIVE","operator":null,"country":"US","launch_date":"2026-03-13","launch_site_code":"AFWTR","launch_vehicle":null,"mission":null,"orbit_class":"UNKNOWN","rcs_meters":null,"size_class":null,"mass_kg":null,"dimensions":null,"purposes":["comms"],"wikipedia_slug":null,"has_3d_model":false,"image_url":null,"decayed_at":null,"tle_current":{"epoch":"2026-05-25T01:41:31.659648Z","epoch_age_seconds":69041,"freshness":"FRESH","line1":"1 68148U 26049G   26145.07050532 -.00007797  00000+0 -23925-3 0  9993","line2":"2 68148  97.2841 166.7406 0001618  53.9582 306.1810 15.33467395 11353","mean_motion":15.33467395,"eccentricity":0.0001618,"inclination_deg":97.2841,"raan_deg":166.7406,"arg_perigee_deg":53.9582,"mean_anomaly_deg":306.181,"bstar":-0.00023925,"rev_number":1135,"period_min":93.904833235792,"perigee_km":464.36924685393,"apogee_km":466.58384019662,"semimajor_km":6843.6135435253,"source":"CELESTRAK","updated_at":"2026-05-25T13:38:21.847567Z"}}}